| time (UTC) | temp F | wind direction | speed knots | gust knots | rain 1hr in | rain 24hr in | rain mn in | humidity % | barometer mb |
| 20260507010619 | 51 | 65 | 6.1 | 13.9 | 0.00 | 0.00 | 0.00 | 98 | 1005.7 |
| 20260507010119 | 51 | 61 | 5.2 | 14.8 | 0.00 | 0.00 | 0.00 | 98 | 1005.7 |
| 20260507005619 | 51 | 48 | 6.1 | 15.6 | 0.00 | 0.00 | 0.00 | 98 | 1005.8 |
| 20260507005119 | 51 | 45 | 6.1 | 13.9 | 0.00 | 0.00 | 0.00 | 98 | 1005.6 |
| 20260507004619 | 51 | 56 | 6.1 | 17.4 | 0.00 | 0.00 | 0.00 | 98 | 1005.6 |
| 20260507004119 | 51 | 57 | 7.0 | 19.1 | 0.00 | 0.00 | 0.00 | 98 | 1005.5 |
| 20260507003619 | 51 | 44 | 7.0 | 19.1 | 0.00 | 0.00 | 0.00 | 98 | 1005.3 |
| 20260507003119 | 51 | 37 | 6.1 | 15.6 | 0.00 | 0.00 | 0.00 | 98 | 1005.4 |
| 20260507002619 | 51 | 62 | 6.1 | 16.5 | 0.00 | 0.00 | 0.00 | 98 | 1005.4 |
| 20260507002119 | 51 | 55 | 6.1 | 13.0 | 0.00 | 0.00 | 0.00 | 98 | 1005.5 |
| 20260507001618 | 51 | 57 | 6.1 | 16.5 | 0.00 | 0.00 | 0.00 | 98 | 1005.5 |
| 20260507001119 | 51 | 37 | 5.2 | 14.8 | 0.00 | 0.00 | 0.00 | 98 | 1005.5 |
| 20260507000619 | 51 | 69 | 5.2 | 17.4 | 0.00 | 0.00 | 0.00 | 98 | 1005.3 |
| 20260507000136 | 51 | 205 | 7.8 | 16.5 | 0.00 | 0.00 | 0.00 | 98 | 1005.4 |
| 20260506235618 | 51 | 103 | 6.1 | 16.5 | 0.00 | 0.00 | 0.00 | 98 | 1005.4 |
| 20260506235118 | 51 | 69 | 7.0 | 21.7 | 0.00 | 0.00 | 0.00 | 98 | 1005.5 |
| 20260506234619 | 51 | 105 | 7.0 | 18.2 | 0.00 | 0.00 | 0.00 | 98 | 1005.5 |
| 20260506234119 | 51 | 43 | 7.8 | 18.2 | 0.00 | 0.00 | 0.00 | 98 | 1003.9 |
| 20260506233618 | 52 | 68 | 5.2 | 23.5 | 0.00 | 0.00 | 0.00 | 98 | |
| 20260506233118 | 52 | 196 | 9.6 | 24.3 | 0.00 | 0.00 | 0.00 | 98 | 1004.9 |
| 20260506232518 | 52 | 38 | 7.0 | 21.7 | 0.00 | 0.00 | 0.00 | 98 | 1005.1 |
| 20260506232019 | 52 | 258 | 0.0 | 22.6 | 0.00 | 0.00 | 0.00 | 98 | 1004.9 |
| 20260506231519 | 51 | 169 | 10.4 | 26.1 | 0.00 | 0.00 | 0.00 | 98 | 1005.0 |
| 20260506231019 | 52 | 203 | 7.8 | 23.5 | 0.00 | 0.00 | 0.00 | 98 | 1005.1 |
| 20260506230518 | 52 | 265 | 8.7 | 22.6 | 0.00 | 0.00 | 0.00 | 98 | 1005.1 |
| 20260506230019 | 52 | 147 | 8.7 | 22.6 | 0.00 | 0.00 | 0.00 | 98 | 1004.9 |
| 20260506225518 | 51 | 145 | 8.7 | 21.7 | 0.00 | 0.00 | 0.00 | 98 | 1004.9 |
| 20260506225018 | 51 | 153 | 7.8 | 20.0 | 0.00 | 0.00 | 0.00 | 98 | 1005.0 |
| 20260506224518 | 51 | 169 | 8.7 | 22.6 | 0.00 | 0.00 | 0.00 | 98 | 1005.0 |
| 20260506223918 | 51 | 168 | 0.0 | 22.6 | 0.00 | 0.00 | 0.00 | 98 | 1004.9 |
| 20260506223419 | 51 | 163 | 0.0 | 21.7 | 0.00 | 0.00 | 0.00 | 97 | 1005.0 |
| 20260506222918 | 51 | 170 | 8.7 | 25.2 | 0.00 | 0.00 | 0.00 | 97 | 1005.0 |
| 20260506222418 | 51 | 170 | 10.4 | 23.5 | 0.00 | 0.00 | 0.00 | 97 | 1004.9 |
| 20260506221818 | 51 | 172 | 13.0 | 24.3 | 0.00 | 0.00 | 0.00 | 97 | 1004.8 |
| 20260506221318 | 51 | 170 | 13.9 | 26.1 | 0.00 | 0.00 | 0.00 | 97 | 1004.9 |
| 20260506220818 | 51 | 175 | 0.0 | 23.5 | 0.00 | 0.00 | 0.00 | 97 | 1005.0 |
| 20260506220318 | 51 | 172 | 0.0 | 21.7 | 0.00 | 0.00 | 0.00 | 96 | 1005.2 |
| 20260506215818 | 51 | 168 | 0.0 | 25.2 | 0.00 | 0.00 | 0.00 | 96 | 1005.0 |
| 20260506215318 | 52 | 176 | 0.0 | 26.9 | 0.00 | 0.00 | 0.00 | 96 | 1005.1 |
| 20260506214818 | 52 | 176 | 0.0 | 26.9 | 0.00 | 0.00 | 0.00 | 96 | 1005.3 |
| 20260506214318 | 52 | 185 | 0.0 | 26.1 | 0.00 | 0.00 | 0.00 | 95 | 1005.1 |
| 20260506213818 | 52 | 198 | 0.0 | 26.1 | 0.00 | 0.00 | 0.00 | 95 | 1005.1 |
| 20260506213318 | 53 | 209 | 0.0 | 27.8 | 0.00 | 0.00 | 0.00 | 95 | 1005.4 |
| 20260506212818 | 53 | 176 | 0.0 | 25.2 | 0.00 | 0.00 | 0.00 | 95 | 1005.4 |
| 20260506212318 | 52 | 185 | 0.0 | 26.9 | 0.00 | 0.00 | 0.00 | 94 | 1005.5 |
| 20260506211818 | 52 | 180 | 13.0 | 26.1 | 0.00 | 0.00 | 0.00 | 94 | 1005.4 |
| 20260506211318 | 52 | 168 | 0.0 | 24.3 | 0.00 | 0.00 | 0.00 | 94 | 1005.3 |
| 20260506210818 | 52 | 167 | 0.0 | 26.1 | 0.00 | 0.00 | 0.00 | 94 | 1005.5 |
| 20260506210318 | 52 | 169 | 13.9 | 24.3 | 0.00 | 0.00 | 0.00 | 94 | 1005.3 |
| 20260506205818 | 52 | 177 | 15.6 | 26.9 | 0.00 | 0.00 | 0.00 | 94 | 1005.2 |
| 20260506205318 | 52 | 176 | 18.2 | 27.8 | 0.00 | 0.00 | 0.00 | 94 | 1005.1 |
| 20260506204818 | 52 | 177 | 16.5 | 29.5 | 0.00 | 0.00 | 0.00 | 94 | 1003.9 |
| 20260506204318 | 52 | 177 | 17.4 | 27.8 | 0.00 | 0.00 | 0.00 | 95 | 1005.3 |
| 20260506203818 | 52 | 177 | 19.1 | 30.4 | 0.00 | 0.00 | 0.00 | 95 | 1005.4 |
| 20260506203318 | 52 | 181 | 18.2 | 31.3 | 0.00 | 0.00 | 0.00 | 95 | 1005.0 |
| 20260506202718 | 52 | 174 | 13.0 | 25.2 | 0.00 | 0.00 | 0.00 | 95 | 1005.7 |
| 20260506202218 | 52 | 176 | 13.9 | 31.3 | 0.00 | 0.00 | 0.00 | 95 | 1005.5 |
| 20260506201718 | 52 | 176 | 15.6 | 26.9 | 0.00 | 0.00 | 0.00 | 94 | 1005.5 |
| 20260506201218 | 52 | 178 | 17.4 | 26.9 | 0.00 | 0.00 | 0.00 | 95 | 1005.4 |
| 20260506200718 | 52 | 177 | 14.8 | 25.2 | 0.00 | 0.00 | 0.00 | 94 | 1005.7 |
| 20260506200218 | 52 | 176 | 13.0 | 26.1 | 0.00 | 0.00 | 0.00 | 94 | 1005.8 |
| 20260506195718 | 52 | 174 | 0.0 | 26.1 | 0.00 | 0.00 | 0.00 | 94 | 1005.9 |
| 20260506195218 | 52 | 177 | 0.0 | 21.7 | 0.00 | 0.00 | 0.00 | 94 | 1006.0 |
| 20260506194718 | 52 | 167 | 11.3 | 23.5 | 0.00 | 0.00 | 0.00 | 94 | 1006.3 |
| 20260506194218 | 52 | 176 | 11.3 | 22.6 | 0.00 | 0.00 | 0.00 | 94 | 1006.2 |
| 20260506193718 | 52 | 167 | 13.0 | 23.5 | 0.00 | 0.00 | 0.00 | 94 | 1005.9 |
| 20260506193218 | 52 | 179 | 13.9 | 24.3 | 0.00 | 0.00 | 0.00 | 93 | 1006.3 |
| 20260506192718 | 52 | 167 | 11.3 | 24.3 | 0.00 | 0.00 | 0.00 | 93 | 1006.3 |
| 20260506192218 | 52 | 178 | 12.2 | 26.1 | 0.00 | 0.00 | 0.00 | 93 | 1006.2 |
| 20260506191718 | 52 | 176 | 0.0 | 25.2 | 0.00 | 0.00 | 0.00 | 93 | 1006.4 |
| 20260506191218 | 52 | 177 | 11.3 | 23.5 | 0.00 | 0.00 | 0.00 | 93 | 1006.4 |
| 20260506190718 | 52 | 174 | 0.0 | 25.2 | 0.00 | 0.00 | 0.00 | 93 | 1006.5 |
| 20260506190218 | 52 | 175 | 0.0 | 22.6 | 0.00 | 0.00 | 0.00 | 93 | 1006.7 |
| 20260506185718 | 52 | 170 | 10.4 | 23.5 | 0.00 | 0.00 | 0.00 | 93 | 1006.5 |
| 20260506185218 | 52 | 170 | 0.0 | 22.6 | 0.00 | 0.00 | 0.00 | 92 | 1006.8 |
| 20260506184718 | 52 | 171 | 0.0 | 24.3 | 0.00 | 0.00 | 0.00 | 92 | 1006.6 |
| 20260506184218 | 53 | 174 | 0.0 | 24.3 | 0.00 | 0.00 | 0.00 | 92 | 1006.7 |
| 20260506183718 | 53 | 187 | 0.0 | 22.6 | 0.00 | 0.00 | 0.00 | 92 | 1006.8 |
| 20260506183218 | 53 | 176 | 12.2 | 26.1 | 0.00 | 0.00 | 0.00 | 92 | 1006.8 |
| 20260506182718 | 53 | 178 | 0.0 | 26.1 | 0.00 | 0.00 | 0.00 | 92 | 1005.2 |
| 20260506182217 | 53 | 169 | 12.2 | 24.3 | 0.00 | 0.00 | 0.00 | 92 | 1006.7 |
| 20260506181717 | 53 | 181 | 0.0 | 25.2 | 0.00 | 0.00 | 0.00 | 91 | 1006.7 |
| 20260506181218 | 53 | 170 | 15.6 | 25.2 | 0.00 | 0.00 | 0.00 | 91 | 1006.7 |
| 20260506180718 | 54 | 171 | 0.0 | 27.8 | 0.00 | 0.00 | 0.00 | 91 | 1006.7 |
| 20260506180217 | 54 | 176 | 0.0 | 25.2 | 0.00 | 0.00 | 0.00 | 91 | 1007.1 |
| 20260506175717 | 54 | 165 | 0.0 | 23.5 | 0.00 | 0.00 | 0.00 | 91 | 1007.0 |
| 20260506175217 | 54 | 160 | 0.0 | 24.3 | 0.00 | 0.00 | 0.00 | 90 | 1007.4 |
| 20260506174717 | 54 | 159 | 0.0 | 29.5 | 0.00 | 0.00 | 0.00 | 90 | 1007.3 |
| 20260506174217 | 54 | 168 | 0.0 | 25.2 | 0.00 | 0.00 | 0.00 | 90 | 1007.7 |
| 20260506173720 | 54 | 182 | 0.0 | 26.1 | 0.00 | 0.00 | 0.00 | 91 | 1007.5 |
| 20260506173217 | 54 | 164 | 12.2 | 32.2 | 0.00 | 0.00 | 0.00 | 91 | 1007.7 |
| 20260506172717 | 54 | 173 | 0.0 | 26.1 | 0.00 | 0.00 | 0.00 | 91 | 1007.7 |
| 20260506172217 | 53 | 173 | 0.0 | 28.7 | 0.00 | 0.00 | 0.00 | 91 | 1007.7 |
| 20260506171718 | 53 | 171 | 0.0 | 24.3 | 0.00 | 0.00 | 0.00 | 91 | 1007.6 |
| 20260506171217 | 53 | 172 | 0.0 | 26.1 | 0.00 | 0.00 | 0.00 | 91 | 1007.7 |
| 20260506170717 | 54 | 173 | 0.0 | 26.9 | 0.00 | 0.00 | 0.00 | 90 | 1007.9 |
| 20260506170217 | 54 | 167 | 0.0 | 25.2 | 0.00 | 0.00 | 0.00 | 90 | 1007.8 |
| 20260506165717 | 55 | 179 | 12.2 | 23.5 | 0.00 | 0.00 | 0.00 | 89 | 1007.9 |
| 20260506165217 | 54 | 170 | 0.0 | 26.1 | 0.00 | 0.00 | 0.00 | 90 | 1007.7 |
| 20260506164717 | 54 | 177 | 12.2 | 24.3 | 0.00 | 0.00 | 0.00 | 90 | 1008.1 |
| 20260506164217 | 54 | 175 | 13.9 | 25.2 | 0.00 | 0.00 | 0.00 | 89 | 1008.1 |
| 20260506163717 | 54 | 174 | 11.3 | 25.2 | 0.00 | 0.00 | 0.00 | 89 | 1008.0 |
| 20260506163217 | 55 | 167 | 0.0 | 23.5 | 0.00 | 0.00 | 0.00 | 89 | 1008.2 |
| 20260506162717 | 55 | 174 | 0.0 | 26.1 | 0.00 | 0.00 | 0.00 | 90 | 1008.3 |
| 20260506162217 | 54 | 174 | 10.4 | 25.2 | 0.00 | 0.00 | 0.00 | 90 | 1008.2 |
| 20260506161717 | 54 | 167 | 11.3 | 25.2 | 0.00 | 0.00 | 0.00 | 90 | 1008.1 |
| 20260506161217 | 54 | 173 | 0.0 | 26.1 | 0.00 | 0.00 | 0.00 | 90 | 1008.2 |
| 20260506160717 | 54 | 167 | 0.0 | 29.5 | 0.00 | 0.00 | 0.00 | 90 | |
| 20260506160217 | 54 | 174 | 12.2 | 25.2 | 0.00 | 0.00 | 0.00 | 91 | 1008.2 |
| 20260506155717 | 54 | 163 | 0.0 | 28.7 | 0.00 | 0.00 | 0.00 | 90 | 1008.5 |
| 20260506155217 | 54 | 165 | 0.0 | 26.1 | 0.00 | 0.00 | 0.00 | 90 | 1008.5 |
| 20260506154717 | 54 | 170 | 0.0 | 25.2 | 0.00 | 0.00 | 0.00 | 89 | 1008.7 |
| 20260506154217 | 55 | 180 | 0.0 | 24.3 | 0.00 | 0.00 | 0.00 | 89 | 1009.0 |
| 20260506153717 | 55 | 173 | 0.0 | 25.2 | 0.00 | 0.00 | 0.00 | 89 | 1008.8 |
| 20260506153217 | 55 | 166 | 0.0 | 24.3 | 0.00 | 0.00 | 0.00 | 89 | 1008.9 |
| 20260506152717 | 55 | 165 | 0.0 | 23.5 | 0.00 | 0.00 | 0.00 | 89 | 1008.9 |
| 20260506152217 | 55 | 169 | 0.0 | 25.2 | 0.00 | 0.00 | 0.00 | 89 | 1008.8 |
| 20260506151732 | 55 | 167 | 11.3 | 26.1 | 0.00 | 0.00 | 0.00 | 90 | 1008.8 |
| 20260506151217 | 54 | 170 | 0.0 | 26.1 | 0.00 | 0.00 | 0.00 | 90 | 1008.9 |
| 20260506150717 | 54 | 172 | 0.0 | 25.2 | 0.00 | 0.00 | 0.00 | 90 | 1009.0 |
| 20260506150217 | 54 | 171 | 0.0 | 25.2 | 0.00 | 0.00 | 0.00 | 90 | 1009.1 |
| 20260506145717 | 55 | 170 | 0.0 | 25.2 | 0.00 | 0.00 | 0.00 | 88 | 1008.9 |
| 20260506145217 | 55 | 174 | 0.0 | 25.2 | 0.00 | 0.00 | 0.00 | 89 | 1009.0 |
| 20260506144717 | 54 | 175 | 12.2 | 23.5 | 0.00 | 0.00 | 0.00 | 90 | 1008.8 |
| 20260506144217 | 54 | 169 | 0.0 | 23.5 | 0.00 | 0.00 | 0.00 | 90 | 1008.8 |
| 20260506143717 | 54 | 173 | 0.0 | 25.2 | 0.00 | 0.00 | 0.00 | 90 | 1008.9 |
| 20260506143217 | 54 | 169 | 0.0 | 23.5 | 0.00 | 0.00 | 0.00 | 91 | 1008.5 |
| 20260506142717 | 53 | 174 | 0.0 | 25.2 | 0.00 | 0.00 | 0.00 | 90 | 1008.7 |
| 20260506142117 | 54 | 163 | 0.0 | 25.2 | 0.00 | 0.00 | 0.00 | 89 | 1009.0 |
| 20260506141616 | 55 | 176 | 0.0 | 24.3 | 0.00 | 0.00 | 0.00 | 87 | 1008.9 |
| 20260506141117 | 56 | 192 | 0.0 | 23.5 | 0.00 | 0.00 | 0.00 | 88 | 1009.0 |
| 20260506140616 | 55 | 211 | 10.4 | 20.9 | 0.00 | 0.00 | 0.00 | 90 | 1009.2 |
| 20260506140116 | 55 | 172 | 8.7 | 21.7 | 0.00 | 0.00 | 0.00 | 88 | 1009.0 |
| 20260506135617 | 56 | 183 | 9.6 | 20.0 | 0.00 | 0.00 | 0.00 | 87 | 1009.0 |
| 20260506135117 | 56 | 181 | 0.0 | 20.9 | 0.00 | 0.00 | 0.00 | 86 | 1009.1 |
| 20260506134617 | 56 | 179 | 8.7 | 20.9 | 0.00 | 0.00 | 0.00 | 86 | 1009.3 |
| 20260506134116 | 56 | 246 | 8.7 | 20.0 | 0.00 | 0.00 | 0.00 | 87 | 1009.4 |
| 20260506133616 | 56 | 331 | 7.0 | 17.4 | 0.00 | 0.00 | 0.00 | 85 | 1009.6 |
| 20260506133133 | 57 | 57 | 6.1 | 16.5 | 0.00 | 0.00 | 0.00 | 85 | |
| 20260506132617 | 57 | 39 | 7.0 | 18.2 | 0.00 | 0.00 | 0.00 | 87 | 1009.7 |
| 20260506132116 | 57 | 228 | 9.6 | 19.1 | 0.00 | 0.00 | 0.00 | 86 | 1009.8 |
| 20260506131616 | 57 | 238 | 11.3 | 19.1 | 0.00 | 0.00 | 0.00 | 86 | 1009.7 |
| 20260506131116 | 57 | 138 | 7.0 | 16.5 | 0.00 | 0.00 | 0.00 | 86 | 1009.7 |
| 20260506130616 | 57 | 39 | 7.8 | 22.6 | 0.00 | 0.00 | 0.00 | 87 | 1009.6 |
| 20260506130116 | 56 | 144 | 8.7 | 24.3 | 0.00 | 0.00 | 0.00 | 87 | 1009.4 |
| 20260506125616 | 56 | 171 | 0.0 | 22.6 | 0.00 | 0.00 | 0.00 | 88 | 1009.3 |
| 20260506125116 | 56 | 183 | 9.6 | 25.2 | 0.00 | 0.00 | 0.00 | 88 | 1007.8 |
| 20260506124616 | 56 | 228 | 11.3 | 24.3 | 0.00 | 0.00 | 0.00 | 88 | 1009.3 |
| 20260506124116 | 56 | 192 | 12.2 | 23.5 | 0.00 | 0.00 | 0.00 | 88 | 1009.3 |
| 20260506123616 | 56 | 168 | 8.7 | 21.7 | 0.00 | 0.00 | 0.00 | 88 | 1009.4 |
| 20260506123116 | 55 | 213 | 10.4 | 21.7 | 0.00 | 0.00 | 0.00 | 88 | 1009.4 |
| 20260506122616 | 55 | 204 | 7.8 | 20.9 | 0.00 | 0.00 | 0.00 | 88 | |
| 20260506122116 | 55 | 243 | 9.6 | 19.1 | 0.00 | 0.00 | 0.00 | 89 | 1009.5 |
| 20260506121616 | 0 | 198 | 9.6 | 21.7 | 0.00 | 0.00 | 0.00 | 1009.4 | |
| 20260506121116 | 54 | 333 | 7.0 | 19.1 | 0.00 | 0.00 | 0.00 | 90 | 1009.5 |
| 20260506120616 | 54 | 228 | 7.8 | 20.9 | 0.00 | 0.00 | 0.00 | 89 | 1009.6 |
| 20260506120116 | 55 | 161 | 7.8 | 17.4 | 0.00 | 0.00 | 0.00 | 90 | 1009.7 |
| 20260506115616 | 55 | 250 | 7.8 | 18.2 | 0.00 | 0.00 | 0.00 | 90 | 1009.7 |
| 20260506115116 | 54 | 128 | 7.8 | 18.2 | 0.00 | 0.00 | 0.00 | 91 | 1009.7 |
| 20260506114616 | 54 | 244 | 7.8 | 19.1 | 0.00 | 0.00 | 0.00 | 91 | 1009.7 |
| 20260506114116 | 54 | 99 | 8.7 | 17.4 | 0.00 | 0.00 | 0.00 | 92 | 1009.7 |
| 20260506113616 | 54 | 338 | 7.0 | 18.2 | 0.00 | 0.00 | 0.00 | 93 | |
| 20260506113116 | 53 | 130 | 7.8 | 19.1 | 0.00 | 0.00 | 0.00 | 94 | 1009.8 |
| 20260506112616 | 53 | 211 | 10.4 | 22.6 | 0.00 | 0.00 | 0.00 | 95 | 1009.7 |
| 20260506112116 | 53 | 156 | 7.8 | 20.9 | 0.00 | 0.00 | 0.00 | 96 | 1009.6 |
| 20260506111616 | 52 | 193 | 8.7 | 25.2 | 0.00 | 0.00 | 0.00 | 96 | 1009.7 |
| 20260506111116 | 52 | 213 | 0.0 | 25.2 | 0.00 | 0.00 | 0.00 | 96 | 1009.6 |
| 20260506110616 | 51 | 184 | 7.8 | 26.1 | 0.00 | 0.00 | 0.00 | 96 | 1009.4 |
| 20260506110116 | 51 | 199 | 9.6 | 24.3 | 0.00 | 0.00 | 0.00 | 96 | 1009.3 |
| 20260506105616 | 51 | 208 | 10.4 | 24.3 | 0.00 | 0.00 | 0.00 | 96 | 1009.5 |
| 20260506105116 | 51 | 193 | 9.6 | 24.3 | 0.00 | 0.00 | 0.00 | 96 | 1009.5 |
| 20260506104616 | 51 | 214 | 8.7 | 18.2 | 0.00 | 0.00 | 0.00 | 96 | 1009.7 |
| 20260506104116 | 52 | 321 | 7.8 | 17.4 | 0.00 | 0.00 | 0.00 | 96 | 1009.7 |
| 20260506103616 | 52 | 341 | 7.0 | 17.4 | 0.00 | 0.00 | 0.00 | 97 | 1009.7 |
| 20260506103133 | 51 | 180 | 6.1 | 20.0 | 0.00 | 0.00 | 0.00 | 96 | 1009.7 |
| 20260506102616 | 51 | 50 | 7.8 | 16.5 | 0.00 | 0.00 | 0.00 | 97 | 1009.7 |
| 20260506102116 | 51 | 310 | 7.8 | 20.9 | 0.00 | 0.00 | 0.00 | 97 | 1009.6 |
| 20260506101616 | 51 | 228 | 9.6 | 18.2 | 0.00 | 0.00 | 0.00 | 97 | 1009.5 |
| 20260506101116 | 51 | 337 | 7.8 | 17.4 | 0.00 | 0.00 | 0.00 | 97 | 1009.5 |
| 20260506100616 | 51 | 260 | 7.0 | 19.1 | 0.00 | 0.00 | 0.00 | 97 | 1009.6 |
| 20260506100116 | 51 | 186 | 8.7 | 20.0 | 0.00 | 0.00 | 0.00 | 97 | 1009.6 |
| 20260506095616 | 51 | 227 | 0.0 | 19.1 | 0.00 | 0.00 | 0.00 | 97 | 1009.6 |
| 20260506095116 | 51 | 257 | 10.4 | 23.5 | 0.00 | 0.00 | 0.00 | 97 | 1009.3 |
| 20260506094616 | 51 | 199 | 0.0 | 22.6 | 0.00 | 0.00 | 0.00 | 97 | 1009.1 |
| 20260506094116 | 51 | 212 | 12.2 | 27.8 | 0.00 | 0.00 | 0.00 | 97 | 1009.1 |
| 20260506093616 | 51 | 214 | 11.3 | 23.5 | 0.00 | 0.00 | 0.00 | 97 | 1009.0 |
| 20260506093116 | 51 | 194 | 0.0 | 23.5 | 0.00 | 0.00 | 0.00 | 97 | 1009.1 |
| 20260506092616 | 51 | 160 | 0.0 | 26.1 | 0.00 | 0.00 | 0.00 | 97 | 1009.2 |
| 20260506092116 | 51 | 257 | 9.6 | 21.7 | 0.00 | 0.00 | 0.00 | 97 | 1009.5 |
| 20260506091615 | 51 | 274 | 0.0 | 17.4 | 0.00 | 0.00 | 0.00 | 97 | 1009.8 |
| 20260506091115 | 51 | 230 | 11.3 | 23.5 | 0.00 | 0.00 | 0.00 | 97 | 1009.8 |
| 20260506090615 | 51 | 229 | 10.4 | 19.1 | 0.00 | 0.00 | 0.00 | 97 | 1009.8 |
| 20260506090116 | 51 | 271 | 7.0 | 18.2 | 0.00 | 0.00 | 0.00 | 97 | 1009.7 |
| 20260506085616 | 51 | 49 | 8.7 | 21.7 | 0.00 | 0.00 | 0.00 | 97 | 1009.7 |
| 20260506085115 | 51 | 349 | 7.0 | 21.7 | 0.00 | 0.00 | 0.00 | 97 | 1009.7 |
| 20260506084616 | 51 | 248 | 8.7 | 25.2 | 0.00 | 0.00 | 0.00 | 97 | 1009.7 |
| 20260506084115 | 51 | 209 | 10.4 | 20.0 | 0.00 | 0.00 | 0.00 | 97 | 1009.5 |
| 20260506083616 | 51 | 119 | 0.0 | 22.6 | 0.00 | 0.00 | 0.00 | 97 | 1009.6 |
| 20260506083116 | 51 | 216 | 13.0 | 26.9 | 0.00 | 0.00 | 0.00 | 97 | 1009.6 |
| 20260506082616 | 51 | 186 | 0.0 | 24.3 | 0.00 | 0.00 | 0.00 | 97 | 1009.0 |
| 20260506082116 | 51 | 215 | 0.0 | 25.2 | 0.00 | 0.00 | 0.00 | 97 | 1009.4 |
| 20260506081615 | 51 | 206 | 12.2 | 20.0 | 0.00 | 0.00 | 0.00 | 97 | 1009.3 |
| 20260506081115 | 51 | 101 | 0.0 | 21.7 | 0.00 | 0.00 | 0.00 | 97 | 1009.6 |
| 20260506080615 | 51 | 236 | 0.0 | 22.6 | 0.00 | 0.00 | 0.00 | 97 | 1009.5 |
| 20260506080116 | 51 | 204 | 0.0 | 24.3 | 0.00 | 0.00 | 0.00 | 97 | 1009.6 |
| 20260506073115 | 51 | 203 | 12.2 | 23.5 | 0.00 | 0.00 | 0.00 | 97 | 1009.6 |
| 20260506072615 | 51 | 208 | 10.4 | 23.5 | 0.00 | 0.00 | 0.00 | 97 | 1009.7 |
| 20260506072115 | 51 | 182 | 12.2 | 22.6 | 0.00 | 0.00 | 0.00 | 97 | 1009.5 |
| 20260506071615 | 51 | 181 | 13.0 | 24.3 | 0.00 | 0.00 | 0.00 | 97 | 1009.5 |
| 20260506071115 | 51 | 187 | 0.0 | 25.2 | 0.00 | 0.00 | 0.00 | 97 | 1009.6 |
| 20260506070615 | 51 | 197 | 13.9 | 26.1 | 0.00 | 0.00 | 0.00 | 97 | 1009.2 |
| 20260506070115 | 51 | 202 | 0.0 | 25.2 | 0.00 | 0.00 | 0.00 | 97 | 1009.6 |
| 20260506062115 | 51 | 223 | 13.9 | 25.2 | 0.00 | 0.00 | 0.00 | 96 | 1009.2 |
| 20260506061615 | 51 | 199 | 0.0 | 25.2 | 0.00 | 0.00 | 0.00 | 95 | 1009.3 |
| 20260506061115 | 51 | 193 | 13.0 | 27.8 | 0.00 | 0.00 | 0.00 | 96 | 1009.1 |
| 20260506060615 | 51 | 186 | 11.3 | 26.1 | 0.00 | 0.00 | 0.00 | 96 | 1009.0 |
| 20260506060115 | 51 | 212 | 0.0 | 28.7 | 0.00 | 0.00 | 0.00 | 95 | 1009.1 |
| 20260506051115 | 51 | 212 | 13.0 | 25.2 | 0.00 | 0.00 | 0.00 | 96 | 1009.2 |
| 20260506050615 | 51 | 179 | 10.4 | 26.1 | 0.00 | 0.00 | 0.00 | 96 | 1009.6 |
| 20260506050115 | 51 | 222 | 0.0 | 26.1 | 0.00 | 0.00 | 0.00 | 96 | 1009.5 |
| 20260506045115 | 51 | 208 | 13.0 | 26.1 | 0.00 | 0.00 | 0.00 | 96 | 1009.5 |
| 20260506044615 | 51 | 183 | 0.0 | 25.2 | 0.00 | 0.00 | 0.00 | 96 | 1009.8 |
| 20260506044115 | 51 | 166 | 0.0 | 25.2 | 0.00 | 0.00 | 0.00 | 96 | 1009.8 |
| 20260506043615 | 51 | 106 | 0.0 | 26.1 | 0.00 | 0.00 | 0.00 | 96 | 1009.8 |
| 20260506043115 | 51 | 264 | 0.0 | 24.3 | 0.00 | 0.00 | 0.00 | 96 | 1009.8 |
| 20260506042615 | 51 | 215 | 0.0 | 24.3 | 0.00 | 0.00 | 0.00 | 96 | 1009.8 |
| 20260506042115 | 51 | 182 | 0.0 | 24.3 | 0.00 | 0.00 | 0.00 | 96 | 1009.9 |
| 20260506041615 | 51 | 225 | 11.3 | 24.3 | 0.00 | 0.00 | 0.00 | 96 | 1009.8 |
| 20260506041114 | 51 | 210 | 11.3 | 25.2 | 0.00 | 0.00 | 0.00 | 96 | 1009.9 |
| 20260506040615 | 51 | 242 | 0.0 | 23.5 | 0.00 | 0.00 | 0.00 | 96 | 1010.0 |
| 20260506040115 | 51 | 195 | 0.0 | 26.9 | 0.00 | 0.00 | 0.00 | 96 | 1010.1 |
| 20260506035615 | 51 | 245 | 8.7 | 20.0 | 0.00 | 0.00 | 0.00 | 96 | 1010.0 |
| 20260506035115 | 51 | 240 | 8.7 | 22.6 | 0.00 | 0.00 | 0.00 | 95 | 1010.1 |
| 20260506034615 | 51 | 240 | 10.4 | 20.9 | 0.00 | 0.00 | 0.00 | 95 | 1010.1 |
| 20260506034115 | 51 | 155 | 7.8 | 24.3 | 0.00 | 0.00 | 0.00 | 95 | 1010.2 |
| 20260506033615 | 51 | 173 | 7.8 | 21.7 | 0.00 | 0.00 | 0.00 | 95 | 1010.2 |
| 20260506033115 | 51 | 156 | 7.0 | 22.6 | 0.00 | 0.00 | 0.00 | 95 | 1010.2 |
| 20260506032615 | 51 | 226 | 8.7 | 20.9 | 0.00 | 0.00 | 0.00 | 95 | 1008.3 |
| 20260506032115 | 51 | 43 | 7.0 | 20.9 | 0.00 | 0.00 | 0.00 | 95 | 1010.1 |
| 20260506031615 | 51 | 33 | 7.0 | 21.7 | 0.00 | 0.00 | 0.00 | 95 | 1010.1 |
| 20260506031114 | 51 | 16 | 7.8 | 18.2 | 0.00 | 0.00 | 0.00 | 94 | 1009.9 |
| 20260506030614 | 51 | 72 | 8.7 | 19.1 | 0.00 | 0.00 | 0.00 | 94 | 1010.1 |
| 20260506030115 | 51 | 255 | 8.7 | 19.1 | 0.00 | 0.00 | 0.00 | 94 | 1009.9 |
| 20260506025615 | 51 | 233 | 8.7 | 20.0 | 0.00 | 0.00 | 0.00 | 94 | 1009.9 |
| 20260506025114 | 51 | 260 | 9.6 | 21.7 | 0.00 | 0.00 | 0.00 | 94 | 1009.8 |
| 20260506024614 | 51 | 141 | 7.8 | 20.0 | 0.00 | 0.00 | 0.00 | 94 | 1010.0 |
| 20260506024114 | 51 | 34 | 7.0 | 18.2 | 0.00 | 0.00 | 0.00 | 94 | 1010.0 |
| 20260506023614 | 51 | 37 | 7.8 | 26.1 | 0.00 | 0.00 | 0.00 | 94 | 1010.0 |
| 20260506023114 | 52 | 47 | 0.0 | 20.9 | 0.00 | 0.00 | 0.00 | 94 | 1009.9 |
| 20260506022614 | 51 | 29 | 0.0 | 20.0 | 0.00 | 0.00 | 0.00 | 94 | 1008.4 |
| 20260506022114 | 51 | 29 | 0.0 | 20.0 | 0.00 | 0.00 | 0.00 | 93 | 1010.0 |
| 20260506021614 | 51 | 270 | 7.8 | 22.6 | 0.00 | 0.00 | 0.00 | 93 | 1010.0 |
| 20260506021114 | 52 | 63 | 0.0 | 20.9 | 0.00 | 0.00 | 0.00 | 93 | 1010.0 |
| 20260506020614 | 52 | 354 | 7.0 | 20.9 | 0.00 | 0.00 | 0.00 | 93 | 1010.0 |
| 20260506020114 | 52 | 266 | 0.0 | 24.3 | 0.00 | 0.00 | 0.00 | 92 | 1009.9 |
| 20260506015614 | 52 | 111 | 0.0 | 25.2 | 0.00 | 0.00 | 0.00 | 92 | 1009.8 |
| 20260506015114 | 52 | 306 | 8.7 | 20.9 | 0.00 | 0.00 | 0.00 | 92 | 1009.9 |
| 20260506014614 | 52 | 35 | 0.0 | 26.1 | 0.00 | 0.00 | 0.00 | 92 | 1008.1 |
| 20260506014114 | 52 | 101 | 0.0 | 20.9 | 0.00 | 0.00 | 0.00 | 92 | 1009.7 |
| 20260506013614 | 52 | 81 | 7.0 | 26.1 | 0.00 | 0.00 | 0.00 | 92 | 1009.6 |
| 20260506013114 | 52 | 274 | 0.0 | 24.3 | 0.00 | 0.00 | 0.00 | 91 | 1009.7 |
| 20260506012614 | 52 | 232 | 0.0 | 26.1 | 0.00 | 0.00 | 0.00 | 91 | 1009.4 |
| 20260506012014 | 52 | 6 | 8.7 | 26.9 | 0.00 | 0.00 | 0.00 | 91 | 1009.4 |
| 20260506011514 | 52 | 235 | 0.0 | 26.1 | 0.00 | 0.00 | 0.00 | 91 | 1009.2 |